Location: Eschertshofen
(49.3064°N, 11.5756°E)
Time: 22:50:16
(UTC+00:00)

Cosmos 1766 - Pass Details

Date: 18 September 2020
Orbit: 522 x 543 km, 82.5° (Epoch: 20 October)

Event Time Altitude Azimuth Distance (km) Brightness Sun altitude
Exits shadow 19:34:06 37° 39° (NE) 838 4.1 -21.7°
Drops below altitude 10° 19:36:45 10° 18° (NNE) 1,802 6.1 -22.1°
Sets 19:38:56 0° 14° (NNE) 2,702 7.1 -22.4°
